sat.trackr.live / text

‹ back to catalog

CENTISPACE-1 GROUP 05 O*

NORAD 69582 · 2026-138A

PAYLOAD ACTIVE UNKNOWN

§ Identity

Operator
Country
PRC
Launch date
2026-06-17
Launch site
JSC
Launch vehicle
Mass (kg)
RCS (m²)

External: N2YO · Heavens-Above · Gunter

§ Orbital elements

Epoch: 2026-09-17T21:07:30.015264Z

Period
102.41 min
Inclination
55.1424°
Eccentricity
0.0005655
Mean motion
14.06059082 rev/d
Perigee alt
868.8 km
Apogee alt
877.0 km
Semi-major
7,251.0 km
B*
-5.7440e-2
RAAN
299.7003°
Arg perigee
262.7532°
Mean anomaly
97.2796°
Rev number
1,313

§ Raw data

CENTISPACE-1 GROUP 05 O*1 69582U 26138A   26260.88020851 -.00093634  00000+0 -57440-1 0  99952 69582  55.1424 299.7003 0005655 262.7532  97.2796 14.06059082 13134

JSON: /api/v1/satellites/69582 · /tle

For live sub-satellite position, see the globe view (requires WebGL).

§ Visibility from observer

Set your observer location to see the next 7 days of passes ≥ 10°. The values pass through the URL so the page stays shareable.

No JS? Fill the form by hand. The geolocation button needs JavaScript.